[[{"header":{"parameterUnit":"m.s-1","parameterCategory":1,"la1":30.2991,"la2":30.254,"lo1":-89.0895,"lo2":-89.0444,"dy":0.0017,"dx":0.0017,"nx":28,"ny":28,"refTime":"2023-09-07T09:00:00:Z","depth":0,"parameterNumber":2,"parameterNumberName":"U-component_of_WINDS"},"data":[0,0,0,0,0,0,0,0,0,0,0,0,0,0,0,0,0,0,0,0,0,0,0,0,0,0,0,0,0,0,0,0,0,0,0,0,0,0,0,0,0,0,0,0,0,0,0,0,0,0,0,0,0,0,0,0,0,0,1.7284,1.7284,0,1.7295,1.7295,1.7295,1.7315,1.7315,1.7315,1.7316,1.7326,1.7326,1.7326,0,0,0,0,0,0,0,0,0,0,0,0,0,1.728,1.728,1.7284,1.7284,1.7284,1.7295,1.7295,1.7295,1.7314,1.7315,1.7315,1.7316,1.7326,1.7326,1.7326,0,0,0,0,0,0,0,0,0,0,0,0,0,1.7285,1.728,1.7284,1.7295,1.7296,1.7295,1.7295,1.7295,1.7314,1.7315,1.7315,1.7316,1.7326,1.7326,1.7326,1.7314,0,0,1.7325,1.7325,0,0,0,0,0,0,0,0,1.7285,1.7285,1.7293,1.7294,1.7295,1.7304,1.7297,1.7301,1.7314,1.7307,1.7316,1.7316,1.7318,1.7319,1.7319,1.7314,1.7315,1.7325,1.7325,1.7325,1.7325,0,0,0,0,0,0,0,1.7284,1.7285,1.7288,1.7293,1.7295,1.73,1.7301,1.7298,1.7309,1.7308,1.7309,1.7311,1.7319,1.7319,1.732,1.7315,1.7325,1.7325,1.7325,1.7325,1.7302,1.7301,0,0,0,0,0,0,1.7282,1.7284,1.7288,1.7288,1.7291,1.7299,1.7301,1.7301,1.7309,1.7311,1.731,1.7311,1.7319,1.732,1.732,1.7308,1.7325,1.7325,1.7325,1.7302,1.7302,1.7301,0,0,0,0,0,0,1.7282,1.7282,1.7287,1.7287,1.7288,1.7299,1.7298,1.73,1.7301,1.7311,1.7313,1.7309,1.732,1.732,1.7316,1.7308,1.7325,1.7325,1.7303,1.7302,1.7301,1.7282,0,0,0,0,0,0,1.7282,1.7282,1.7278,1.7287,1.7288,1.7282,1.7298,1.73,1.7301,1.7303,1.731,1.7312,1.732,1.7316,1.7315,1.7308,1.7325,1.7304,1.7303,1.7302,1.7283,1.728,1.7278,0,0,0,0,0,1.7282,1.7271,1.7277,1.7278,1.7282,1.7282,1.7282,1.7292,1.73,1.7296,1.7303,1.7312,1.7309,1.7315,1.7315,1.7308,1.7304,1.7303,1.7302,1.7284,1.7281,1.7278,0,0,0,0,0,0,1.726,1.7272,1.7279,1.7271,1.7275,1.7285,1.728,1.7288,1.729,1.7292,1.7304,1.7305,1.7299,1.7303,1.7309,1.7297,1.7308,1.7307,1.7295,1.7292,1.7289,1.7288,1.7325,0,0,0,0,0,1.7255,1.7254,1.7264,1.7256,1.7258,1.7268,1.7269,1.7276,1.7281,1.7282,1.7289,1.7292,1.7293,1.7292,1.7293,1.7284,1.7286,1.7279,1.7276,1.7274,1.7273,1.7269,1.7266,1.7297,1.7297,1.7297,0,0,1.7243,1.725,1.7248,1.7252,1.7256,1.7255,1.727,1.7267,1.7266,1.7282,1.7278,1.7283,1.7288,1.7281,1.7279,1.7284,1.7265,1.7273,1.7271,1.7271,1.7268,1.7265,1.7262,1.7296,1.7296,1.7296,0,0,1.7221,1.7226,1.722,1.7224,1.723,1.7238,1.7236,1.7245,1.7249,1.7246,1.7258,1.7257,1.7257,1.726,1.7262,1.7243,1.7252,1.7243,1.723,1.7226,1.7224,1.7221,1.7215,1.7213,1.7242,1.7242,1.7242,0,1.7205,1.7204,1.7216,1.7213,1.7215,1.723,1.7224,1.7228,1.7234,1.7234,1.7241,1.7242,1.7247,1.7241,1.7237,1.7238,1.7237,1.7242,1.7223,1.7221,1.7219,1.7213,1.7211,1.7241,1.7241,1.7241,1.7241,0,1.7185,1.7184,1.7178,1.7185,1.7186,1.7182,1.7193,1.7193,1.7201,1.7208,1.7205,1.7211,1.7213,1.7213,1.722,1.7209,1.7212,1.7221,1.7232,1.7215,1.721,1.7208,1.7239,1.7239,1.724,1.724,0,0,1.7149,1.7163,1.7161,1.7164,1.7173,1.7172,1.7169,1.7173,1.7172,1.7176,1.7174,1.7175,1.7183,1.7185,1.7193,1.719,1.7175,1.7199,1.7199,1.7194,1.7164,1.7158,1.7155,1.7182,1.7181,1.7181,1.7164,0,1.7129,1.7124,1.7136,1.7129,1.7128,1.7143,1.7141,1.7146,1.7152,1.7153,1.716,1.7161,1.7171,1.7173,1.717,1.7178,1.717,1.7179,1.718,1.718,1.7178,1.7152,1.7145,1.7129,1.7162,1.7162,1.7161,0,1.7104,1.7108,1.7101,1.7112,1.7112,1.7109,1.7114,1.7114,1.7121,1.7126,1.7129,1.7139,1.7137,1.7148,1.7146,1.7152,1.7154,1.7157,1.7157,1.7157,1.7169,1.7152,1.7124,1.7122,1.7158,1.7159,1.7159,0,1.7079,1.7082,1.7079,1.7082,1.7094,1.7092,1.7097,1.7104,1.7105,1.7109,1.7111,1.7114,1.7116,1.7119,1.7129,1.7136,1.7126,1.7138,1.7131,1.713,1.7127,1.7127,1.7099,1.7128,1.7128,1.7128,1.7128,0,1.7056,1.7051,1.7068,1.7066,1.7062,1.7075,1.707,1.7076,1.7083,1.7082,1.7096,1.7095,1.7109,1.711,1.7118,1.7116,1.7116,1.7121,1.7123,1.7119,1.7119,1.712,1.7121,1.7128,1.7128,1.7128,1.7128,0,1.7026,1.7038,1.7035,1.7047,1.705,1.7046,1.7057,1.7055,1.7064,1.7063,1.7063,1.7076,1.7078,1.7089,1.7093,1.7099,1.7093,1.7098,1.7091,1.7093,1.7085,1.7085,1.7056,1.7053,1.7084,1.7084,1.7083,0,1.7011,1.7008,1.702,1.7021,1.7025,1.7026,1.7028,1.7042,1.7043,1.7052,1.7049,1.7053,1.7056,1.7058,1.7068,1.7071,1.7076,1.7066,1.7077,1.7074,1.7076,1.7076,1.7076,1.7063,1.7063,1.7063,1.7062,0,1.6982,1.6988,1.699,1.6995,1.6998,1.7002,1.7007,1.7007,1.7022,1.7023,1.7026,1.7029,1.7034,1.7037,1.7042,1.7048,1.7057,1.7059,1.7058,1.7054,1.705,1.7052,1.7085,1.7059,1.706,1.706,1.706,1.706,1.6959,1.6957,1.6966,1.6969,1.6974,1.6979,1.6979,1.6987,1.699,1.6995,1.7003,1.7005,1.7013,1.7021,1.7026,1.7027,1.7033,1.7031,1.703,1.7029,1.7028,1.705,1.7028,1.7028,1.7028,1.7029,1.7029,0,1.6931,1.6937,1.694,1.6947,1.695,1.696,1.6966,1.6968,1.6969,1.6976,1.6979,1.6982,1.6986,1.6996,1.7001,1.7,1.7005,1.7001,1.7001,1.7002,1.7022,1.7023,1.6997,1.6997,1.6997,1.6997,1.6997,1.6997,1.6916,1.6914,1.6922,1.6923,1.693,1.6932,1.6935,1.6939,1.6945,1.6948,1.6952,1.6958,1.6967,1.6972,1.6976,1.6979,1.698,1.6975,1.6979,1.6998,1.7001,1.7003,1.7004,1.6975,1.6975,1.6959,1.6959,1.6959]},{"header":{"parameterUnit":"m.s-1","parameterCategory":1,"la1":30.2991,"la2":30.254,"lo1":-89.0895,"lo2":-89.0444,"dy":0.0017,"dx":0.0017,"nx":28,"ny":28,"refTime":"2023-09-07T09:00:00:Z","depth":0,"parameterNumber":3,"parameterNumberName":"V-component_of_WINDS"},"data":[0,0,0,0,0,0,0,0,0,0,0,0,0,0,0,0,0,0,0,0,0,0,0,0,0,0,0,0,0,0,0,0,0,0,0,0,0,0,0,0,0,0,0,0,0,0,0,0,0,0,0,0,0,0,0,0,0,0,-0.0901,-0.0901,0,-0.0928,-0.0929,-0.0929,-0.0917,-0.0917,-0.0916,-0.0915,-0.0944,-0.0945,-0.0947,0,0,0,0,0,0,0,0,0,0,0,0,0,-0.0841,-0.0842,-0.0901,-0.0901,-0.0902,-0.0928,-0.0929,-0.0929,-0.0917,-0.0917,-0.0916,-0.0915,-0.0944,-0.0945,-0.0947,0,0,0,0,0,0,0,0,0,0,0,0,0,-0.0868,-0.0843,-0.0901,-0.0899,-0.0899,-0.0928,-0.0929,-0.0929,-0.0918,-0.0917,-0.0916,-0.0915,-0.0943,-0.0945,-0.0947,-0.098,0,0,-0.0953,-0.0954,0,0,0,0,0,0,0,0,-0.0866,-0.087,-0.0899,-0.0899,-0.09,-0.0918,-0.0918,-0.0946,-0.0918,-0.0911,-0.0915,-0.0914,-0.0936,-0.0939,-0.0946,-0.0981,-0.0982,-0.0954,-0.0955,-0.0956,-0.0956,0,0,0,0,0,0,0,-0.0864,-0.0869,-0.0912,-0.09,-0.09,-0.0898,-0.09,-0.0923,-0.0929,-0.0911,-0.091,-0.0914,-0.0936,-0.0944,-0.0947,-0.0983,-0.0954,-0.0955,-0.0957,-0.0957,-0.1048,-0.1049,0,0,0,0,0,0,-0.0862,-0.0867,-0.0911,-0.0913,-0.088,-0.09,-0.0903,-0.0913,-0.0929,-0.093,-0.0915,-0.0913,-0.0941,-0.0944,-0.0948,-0.0988,-0.0956,-0.0958,-0.0959,-0.1046,-0.1048,-0.1049,0,0,0,0,0,0,-0.0861,-0.0866,-0.091,-0.089,-0.0895,-0.0902,-0.0914,-0.0914,-0.0922,-0.0931,-0.0932,-0.0922,-0.0941,-0.0945,-0.0972,-0.0989,-0.0959,-0.0961,-0.1045,-0.1047,-0.1048,-0.1069,0,0,0,0,0,0,-0.0859,-0.0866,-0.0878,-0.089,-0.0896,-0.0933,-0.0915,-0.0916,-0.0926,-0.0924,-0.0938,-0.0939,-0.094,-0.0969,-0.0974,-0.0991,-0.0962,-0.1044,-0.1046,-0.1048,-0.1067,-0.1071,-0.1075,0,0,0,0,0,-0.0857,-0.0882,-0.0878,-0.0884,-0.0911,-0.0934,-0.0938,-0.0938,-0.0927,-0.094,-0.0946,-0.0939,-0.0986,-0.0972,-0.0978,-0.0996,-0.1043,-0.1045,-0.1048,-0.1065,-0.107,-0.1075,0,0,0,0,0,0,-0.0872,-0.0884,-0.088,-0.0909,-0.0921,-0.0932,-0.0948,-0.0944,-0.0959,-0.0957,-0.0957,-0.096,-0.0988,-0.0995,-0.0979,-0.1029,-0.1013,-0.1017,-0.1024,-0.1029,-0.1033,-0.1031,-0.0964,0,0,0,0,0,-0.0878,-0.0896,-0.0905,-0.0931,-0.0937,-0.0941,-0.0951,-0.0951,-0.0963,-0.0968,-0.0976,-0.0988,-0.1006,-0.1018,-0.1034,-0.1067,-0.1071,-0.1083,-0.1087,-0.109,-0.1094,-0.1113,-0.1119,-0.1058,-0.1058,-0.1057,0,0,-0.0892,-0.0901,-0.0912,-0.0934,-0.0943,-0.0962,-0.0946,-0.0966,-0.098,-0.0971,-0.0998,-0.1004,-0.1018,-0.1049,-0.1062,-0.1055,-0.1111,-0.1093,-0.1096,-0.1098,-0.1117,-0.1122,-0.1128,-0.1059,-0.1059,-0.1059,0,0,-0.0927,-0.0935,-0.0958,-0.0967,-0.0981,-0.0984,-0.099,-0.1002,-0.1006,-0.1033,-0.1027,-0.1044,-0.1074,-0.1085,-0.1095,-0.1135,-0.113,-0.1141,-0.1162,-0.1182,-0.1186,-0.1191,-0.1207,-0.1212,-0.1144,-0.1144,-0.1144,0,-0.0943,-0.0971,-0.097,-0.0991,-0.1002,-0.0994,-0.1018,-0.1027,-0.1046,-0.1054,-0.1045,-0.1084,-0.1093,-0.1127,-0.1137,-0.1144,-0.1152,-0.114,-0.1186,-0.119,-0.1194,-0.121,-0.1215,-0.1146,-0.1145,-0.1145,-0.1145,0,-0.099,-0.1009,-0.1026,-0.1045,-0.1057,-0.1079,-0.1083,-0.1096,-0.1094,-0.1099,-0.1127,-0.1137,-0.1157,-0.1165,-0.1163,-0.1199,-0.1194,-0.1185,-0.1169,-0.1201,-0.1216,-0.1222,-0.1147,-0.1147,-0.1147,-0.1146,0,0,-0.1035,-0.1054,-0.106,-0.1069,-0.1085,-0.11,-0.1122,-0.1142,-0.1153,-0.1166,-0.1186,-0.1213,-0.1205,-0.1216,-0.1216,-0.1232,-0.1266,-0.1222,-0.1222,-0.1231,-0.1309,-0.1316,-0.1323,-0.1263,-0.1264,-0.1265,-0.1308,0,-0.1073,-0.1112,-0.1113,-0.1149,-0.1168,-0.1162,-0.1182,-0.1194,-0.1199,-0.1216,-0.1222,-0.1241,-0.1229,-0.1236,-0.1252,-0.1259,-0.1282,-0.1255,-0.1282,-0.1283,-0.128,-0.133,-0.1338,-0.1378,-0.1313,-0.1314,-0.1315,0,-0.1121,-0.1137,-0.1176,-0.119,-0.1198,-0.1215,-0.1234,-0.125,-0.1264,-0.1267,-0.1279,-0.1277,-0.1301,-0.1284,-0.1318,-0.13,-0.1311,-0.1316,-0.1318,-0.1321,-0.1302,-0.1336,-0.1391,-0.1397,-0.1324,-0.1323,-0.1322,0,-0.1153,-0.1183,-0.121,-0.1218,-0.1235,-0.1248,-0.1255,-0.1268,-0.128,-0.1297,-0.1305,-0.1323,-0.1334,-0.1349,-0.1353,-0.1339,-0.1387,-0.137,-0.1391,-0.1391,-0.1403,-0.1402,-0.1461,-0.1407,-0.1407,-0.1407,-0.1407,0,-0.1195,-0.1219,-0.1225,-0.1242,-0.1269,-0.127,-0.1297,-0.1304,-0.1316,-0.1335,-0.133,-0.1348,-0.1351,-0.137,-0.1373,-0.1402,-0.1406,-0.141,-0.141,-0.1411,-0.1411,-0.1419,-0.1417,-0.1409,-0.1409,-0.1408,-0.1408,0,-0.1235,-0.1239,-0.1269,-0.1282,-0.1286,-0.1306,-0.1318,-0.1335,-0.134,-0.1364,-0.137,-0.1377,-0.14,-0.1404,-0.143,-0.1432,-0.1467,-0.1464,-0.1463,-0.1463,-0.1485,-0.1483,-0.1552,-0.1562,-0.1501,-0.1501,-0.1502,0,-0.1262,-0.1281,-0.1297,-0.1309,-0.1317,-0.1337,-0.135,-0.1351,-0.1365,-0.1383,-0.1398,-0.142,-0.1437,-0.1473,-0.1482,-0.1502,-0.1501,-0.1524,-0.1504,-0.1505,-0.1503,-0.1503,-0.1505,-0.1528,-0.1528,-0.1529,-0.1529,0,-0.1311,-0.1313,-0.1331,-0.135,-0.1365,-0.138,-0.1395,-0.1405,-0.1409,-0.1425,-0.1447,-0.1461,-0.1488,-0.1511,-0.1531,-0.154,-0.1536,-0.1535,-0.1542,-0.1543,-0.1542,-0.1545,-0.1474,-0.1534,-0.1534,-0.1533,-0.1533,-0.1533,-0.1347,-0.1364,-0.1378,-0.1398,-0.141,-0.1424,-0.1441,-0.1448,-0.1467,-0.1489,-0.1489,-0.1514,-0.1529,-0.1557,-0.1567,-0.1587,-0.158,-0.1589,-0.1592,-0.1594,-0.1597,-0.1538,-0.1591,-0.1591,-0.1591,-0.1591,-0.1591,0,-0.1397,-0.1406,-0.1425,-0.1446,-0.1462,-0.1456,-0.1473,-0.1487,-0.151,-0.1524,-0.1541,-0.1568,-0.159,-0.1601,-0.1623,-0.1637,-0.1636,-0.1643,-0.1643,-0.1645,-0.1601,-0.1594,-0.1644,-0.1644,-0.1644,-0.1644,-0.1644,-0.1644,-0.1425,-0.1454,-0.1457,-0.1492,-0.1501,-0.1526,-0.1536,-0.1549,-0.1561,-0.1591,-0.1609,-0.1616,-0.1629,-0.1652,-0.1673,-0.1675,-0.1684,-0.1692,-0.1694,-0.1653,-0.1648,-0.1643,-0.1636,-0.1694,-0.1694,-0.1737,-0.1737,-0.1737]}]]